Theta_e
315 315 319 330 341 342 345 343 340 340 337 334 333 334 334 334 335 334 330 333 332 333 334 336 334 331 330 321 317 315 315 315 315 315 315 315 316 316 317 318 319 327 330 331 331 333 332 334 338
315 318 323 328 342 345 343 339 336 334 334 333 333 333 332 336 334 331 331 330 330 331 332 333 331 329 321 317 316 316 315 315 315 315 316 316 316 316 316 316 318 325 328 329 333 334 333 333 336
317 319 322 334 341 345 343 336 335 333 332 333 332 332 331 334 332 328 325 327 329 329 330 330 326 321 318 318 319 318 316 316 316 316 316 317 317 318 318 318 319 322 324 326 328 331 335 336 335
321 322 319 335 338 339 338 335 333 332 332 331 332 332 332 329 327 325 325 326 328 327 326 322 320 318 319 320 320 319 318 318 317 317 318 318 318 318 317 317 318 320 321 322 323 323 324 327 330
323 320 325 326 325 337 336 334 334 333 332 332 330 331 331 326 323 323 323 325 323 321 320 319 318 320 321 321 321 320 320 320 320 323 326 329 331 331 329 327 325 322 320 319 319 318 317 317 318
321 319 328 330 334 338 336 335 334 333 332 331 329 328 330 324 321 322 322 321 319 317 317 318 320 321 321 321 321 322 322 326 328 332 334 336 336 336 337 337 337 337 337 337 336 336 336 332 322
322 324 325 334 339 339 337 335 335 332 329 326 326 324 327 323 321 320 319 318 317 318 319 320 321 321 321 321 321 322 326 334 335 334 335 337 338 338 338 338 337 337 338 338 339 340 339 338 337
318 322 328 337 340 338 337 334 332 330 331 326 323 322 322 319 319 318 317 318 319 320 320 320 320 320 321 321 321 326 331 332 337 337 338 339 338 338 340 338 338 339 338 338 338 339 340 340 338
318 323 326 331 339 340 336 334 332 334 329 332 330 327 320 317 317 318 318 320 320 320 320 320 320 321 321 322 322 323 330 335 337 337 338 338 339 340 341 342 341 341 341 341 342 340 339 338 339
320 323 324 323 337 339 336 332 336 332 332 334 334 326 318 318 318 319 320 320 320 320 320 321 321 323 328 327 330 330 333 334 336 337 339 337 340 341 340 340 341 342 342 341 340 341 343 343 343
318 323 326 330 336 337 336 336 336 333 335 335 335 330 320 318 319 320 320 320 320 320 322 329 329 325 333 335 336 337 338 339 340 340 340 340 340 341 341 342 342 342 343 343 342 342 342 342 342
321 328 335 336 336 336 337 337 337 335 333 334 334 332 325 321 321 320 320 320 321 323 327 332 335 332 332 335 338 339 339 340 340 341 340 340 341 341 341 342 343 344 344 341 337 333 330 330 332
320 333 336 335 336 336 337 338 337 335 335 333 332 334 333 329 326 322 321 323 323 323 330 335 336 337 338 339 342 341 340 341 341 341 341 341 341 342 343 344 344 341 331 320 316 316 316 316 316
332 338 337 336 336 335 337 336 335 335 335 333 332 335 335 335 332 330 327 328 334 335 335 336 338 339 340 342 343 341 340 340 341 341 341 341 343 344 344 341 329 317 315 314 314 314 314 315 316
337 339 338 338 337 336 335 337 337 336 335 335 334 335 334 335 336 335 335 334 334 338 338 339 340 340 343 342 344 344 342 342 342 343 343 344 344 342 329 316 314 313 312 312 312 312 311 312 315
338 338 341 338 337 335 336 341 334 336 336 335 335 335 335 335 335 336 336 335 337 337 339 339 341 342 343 343 343 344 344 344 344 344 344 343 334 316 314 313 312 312 311 311 311 311 310 310 312
329 338 340 339 338 337 338 341 336 337 337 336 337 337 337 338 334 335 335 336 336 337 339 340 342 342 344 343 344 345 345 345 345 343 339 321 314 313 312 313 312 312 312 312 312 312 312 311 310
333 337 337 339 340 338 339 341 337 336 337 338 340 340 340 340 336 335 335 335 336 336 338 340 341 343 344 346 344 345 346 345 343 334 317 313 312 313 313 313 314 314 314 314 314 314 314 312 311
323 328 338 333 337 340 341 340 340 337 337 338 340 342 343 344 340 336 337 338 338 336 336 341 342 344 346 345 345 344 345 341 330 316 313 313 313 313 314 314 315 315 315 316 316 315 315 315 314
319 322 330 322 321 340 340 342 339 336 338 337 339 342 344 346 343 342 341 340 340 339 339 342 345 346 346 345 345 345 342 331 317 313 312 313 313 314 315 315 316 316 316 316 316 315 315 316 315
319 320 321 322 329 333 332 331 333 335 337 339 339 341 344 346 346 344 344 343 343 342 343 346 347 346 345 344 345 343 336 324 315 313 313 313 314 314 315 316 316 316 316 316 316 316 316 317 317
322 320 321 326 329 327 330 326 336 337 338 338 340 341 343 346 347 346 344 344 344 345 346 346 347 346 344 344 343 341 339 326 315 314 314 314 314 315 315 316 316 317 317 316 316 316 316 317 317
323 320 321 326 327 328 334 332 330 335 339 339 339 341 342 344 346 347 346 345 346 347 347 347 346 343 344 345 343 341 335 321 315 315 315 315 315 315 316 317 317 317 317 316 316 316 316 316 316
319 322 322 321 324 325 327 333 326 330 337 337 338 340 340 343 345 347 347 346 347 346 345 343 333 333 343 344 341 338 334 320 315 315 316 316 316 316 317 318 318 318 318 317 316 315 315 315 316
321 326 325 325 325 325 322 329 328 330 326 331 338 340 340 341 343 346 346 342 346 344 340 334 331 328 333 343 340 337 330 321 315 316 316 316 316 316 318 319 318 319 318 316 315 314 313 313 315
324 327 325 325 325 324 321 325 325 326 323 328 331 334 332 333 341 344 343 342 345 341 337 336 330 329 332 340 339 335 328 323 316 316 316 316 317 317 319 319 319 319 317 314 313 312 312 313 313
322 324 322 325 321 323 324 325 326 328 330 330 337 337 334 330 336 342 341 342 345 343 338 335 332 330 331 332 332 332 326 322 317 317 316 316 318 318 320 319 320 319 314 312 312 310 309 310 310
323 321 326 325 327 326 326 327 327 332 332 332 336 337 337 336 339 339 338 340 343 341 339 333 330 331 327 330 328 329 327 318 317 317 316 317 318 319 320 320 319 315 313 308 306 306 308 308 309
323 323 323 326 326 327 328 327 330 332 334 333 333 336 337 338 338 338 337 338 340 339 338 335 330 328 326 329 329 329 322 317 317 316 316 318 319 320 321 320 317 312 307 304 303 305 307 307 307
323 326 328 327 329 325 327 327 325 329 330 331 332 334 333 333 337 337 337 338 339 337 340 337 332 326 321 326 327 324 319 317 317 317 318 319 321 322 321 319 314 308 305 302 303 305 305 305 304
Wind_Speed
4 4 2 1 2 0 3 4 2 2 3 3 12 3 3 3 0 2 14 21 20 17 17 15 12 9 6 3 3 5 7 9 10 11 12 12 11 11 10 10 11 12 11 10 9 8 6 6 6
2 1 1 0 1 4 4 3 10 5 9 14 9 6 3 3 4 13 18 19 20 18 16 14 11 8 6 5 7 9 10 12 13 14 14 15 15 14 14 13 12 11 9 7 6 6 6 4 3
0 1 1 1 2 3 4 8 13 12 5 3 5 6 3 3 10 16 19 20 19 16 15 13 11 9 8 9 10 12 14 15 16 16 17 16 16 15 15 14 12 10 7 4 2 1 1 1 2
0 1 3 1 5 3 1 13 12 10 7 6 8 7 4 4 15 14 21 21 18 17 16 14 12 11 11 11 12 14 16 17 18 18 18 18 17 16 15 13 11 8 5 2 1 3 4 5 6
1 1 2 3 1 1 3 8 3 6 5 6 3 4 5 14 9 18 20 20 18 18 17 15 14 13 12 13 14 16 17 18 18 19 19 18 17 16 15 13 11 9 7 4 2 2 3 5 7
1 1 2 1 2 1 3 4 6 5 5 8 9 10 6 9 13 21 19 19 17 17 17 17 15 14 13 13 14 15 16 17 18 17 16 15 14 13 12 10 9 8 7 6 6 5 5 4 4
1 1 3 3 2 4 5 5 6 8 10 10 12 7 6 15 20 20 19 19 19 19 18 17 17 15 15 14 14 14 15 15 14 13 12 11 10 9 8 7 7 6 6 6 6 7 7 7 7
2 1 4 2 6 4 7 5 8 13 7 15 11 5 9 21 23 21 21 20 20 19 19 18 17 16 15 14 13 13 13 12 11 9 8 7 6 6 6 6 6 6 6 7 6 6 7 7 6
2 1 3 4 7 5 10 6 9 4 16 5 6 7 16 26 25 23 22 21 20 19 18 17 16 15 14 13 12 12 11 10 9 7 6 4 4 5 5 6 7 8 9 9 8 8 8 8 8
2 2 2 2 6 9 16 14 11 9 14 6 6 15 24 26 25 24 24 22 21 20 18 17 16 15 14 13 12 10 9 8 6 4 3 4 5 5 6 7 9 12 13 12 11 11 11 12 12
2 2 2 3 9 8 13 11 5 17 10 9 14 25 27 27 25 23 22 21 20 19 19 17 16 16 14 12 11 9 8 7 5 3 2 2 4 5 6 9 11 14 15 14 14 14 15 16 16
3 2 1 3 5 9 11 11 7 8 5 8 16 28 28 26 25 24 22 21 21 20 19 17 15 14 12 11 10 9 8 6 5 3 2 3 5 7 7 10 13 15 16 16 15 15 14 15 15
4 1 4 5 9 8 9 6 4 10 5 11 24 28 27 24 23 22 20 19 20 19 19 16 15 13 11 10 9 9 8 8 8 7 6 6 6 7 9 12 15 16 16 15 16 16 16 16 15
2 4 5 5 9 7 5 3 2 10 7 15 28 27 26 25 24 23 22 22 20 18 17 16 14 13 13 12 8 7 8 7 6 6 5 4 5 7 10 12 12 12 13 15 16 16 17 17 16
5 6 7 6 4 4 3 4 7 5 11 20 24 25 27 27 25 23 22 22 20 19 18 17 16 16 14 14 10 6 7 6 5 4 3 2 5 7 7 8 9 11 13 14 14 14 15 15 15
3 3 7 3 5 2 5 11 6 9 15 19 23 22 23 24 26 23 21 19 19 20 21 21 19 18 17 14 11 8 7 6 5 3 2 5 4 4 6 8 9 12 14 15 16 16 16 16 14
2 8 5 4 6 4 8 10 0 10 14 17 20 21 21 21 26 25 23 22 22 22 23 26 23 21 18 15 12 10 8 7 4 4 2 1 3 6 7 9 12 14 14 15 16 17 17 17 14
8 5 4 4 8 6 7 13 5 8 14 18 19 20 20 21 25 25 24 24 26 27 27 27 26 23 20 15 11 12 11 9 6 5 5 7 8 9 9 11 11 12 13 16 17 17 18 18 16
7 5 13 5 6 10 18 19 12 9 13 17 20 19 20 21 22 25 25 24 25 25 29 29 27 24 20 18 15 14 13 10 9 10 11 11 10 10 9 10 11 13 15 17 18 20 21 21 21
3 5 7 3 1 10 9 19 12 13 16 23 22 23 22 20 23 25 24 23 24 23 26 27 25 21 20 18 16 15 14 13 12 13 13 12 11 10 9 10 11 13 15 17 19 20 19 20 22
3 6 5 5 4 5 1 10 13 11 16 14 23 24 25 27 26 27 27 25 24 24 26 26 24 23 20 19 17 16 16 15 16 16 14 13 10 8 9 9 10 13 16 18 19 19 19 16 16
8 15 7 11 9 3 9 5 5 8 11 19 22 27 29 30 29 29 32 31 30 27 25 23 21 19 19 18 17 13 12 16 18 17 15 12 9 8 8 8 9 12 15 17 19 19 19 16 15
7 9 14 10 7 4 8 5 3 1 11 17 25 30 32 34 35 35 33 34 29 27 23 20 18 15 15 20 17 14 15 18 19 18 15 12 9 6 6 6 8 11 15 17 17 17 17 17 14
10 6 5 4 4 6 7 8 7 5 10 17 24 27 33 31 32 31 31 26 29 28 22 7 3 11 20 22 21 19 18 21 22 19 16 11 8 5 4 4 7 11 14 15 15 17 17 15 13
7 7 5 7 7 8 2 6 10 7 10 10 14 22 26 26 29 30 31 29 35 29 21 20 9 24 24 26 25 22 21 19 19 18 14 10 6 4 2 3 6 10 13 14 15 17 16 14 11
8 4 5 7 7 9 4 6 6 5 6 8 10 14 15 21 24 27 32 37 41 34 33 29 17 26 28 29 29 26 23 20 19 16 12 8 5 3 0 3 8 12 13 13 15 16 14 12 11
5 5 2 4 1 3 3 4 9 7 8 9 12 12 15 14 18 24 29 39 45 43 34 24 20 27 29 28 30 28 25 20 20 18 13 9 6 4 3 5 8 11 12 13 16 14 11 10 10
2 8 3 1 5 9 4 3 5 5 10 9 10 11 9 5 12 19 27 35 44 42 35 22 24 24 29 30 30 29 24 21 21 18 14 11 7 6 6 7 9 11 14 15 16 13 10 9 9
4 3 3 1 2 10 12 8 7 11 9 8 10 11 10 9 12 18 23 26 36 38 38 32 27 31 30 29 31 29 26 24 22 18 14 11 9 8 8 8 9 13 15 15 12 9 8 8 9
2 4 7 7 6 2 4 8 5 9 9 11 14 12 13 13 13 16 20 23 31 36 38 31 29 29 27 30 31 30 27 24 22 19 15 12 10 7 8 10 11 15 15 12 9 7 8 10 11
Wind_Direction
330 337 353 109 201 58 66 54 302 45 101 73 147 181 173 73 70 33 154 159 160 165 161 158 154 155 156 154 124 114 111 108 105 100 98 97 97 98 101 110 121 128 118 106 94 91 93 79 78
315 329 70 214 18 103 77 31 59 63 111 109 96 102 85 83 115 136 145 154 161 163 163 159 154 156 150 128 110 104 105 105 102 98 97 95 94 94 96 102 117 127 124 111 90 77 77 87 101
96 206 227 94 90 84 100 131 116 117 80 123 111 67 59 74 137 137 151 152 155 160 161 155 154 148 133 121 113 109 105 103 101 99 97 96 94 92 94 99 110 123 128 130 115 75 42 0 298
194 227 46 94 95 107 113 149 132 119 98 83 109 81 71 105 133 140 151 150 156 159 158 155 149 142 133 122 113 106 102 101 101 100 98 96 94 92 92 93 98 106 114 131 233 277 281 277 272
227 59 74 77 71 33 101 151 145 117 100 115 114 110 90 143 145 152 154 154 160 158 155 150 142 135 127 119 111 106 102 101 100 98 96 93 89 87 85 85 86 87 87 82 60 343 304 291 283
132 82 129 250 148 88 134 155 137 91 120 124 104 112 136 170 152 152 154 154 155 152 145 141 138 133 126 120 115 110 108 107 107 104 102 97 92 89 88 86 83 77 65 52 38 26 13 3 341
93 112 116 153 126 169 144 155 167 137 132 112 126 123 150 161 158 156 154 154 153 149 144 142 140 137 133 130 124 119 118 113 111 111 105 100 94 89 87 84 73 59 44 31 21 14 10 4 358
98 106 143 199 180 169 148 136 141 139 98 130 131 143 157 163 160 158 157 156 153 151 148 147 144 141 137 132 129 123 120 122 118 113 107 105 94 82 70 65 49 32 21 11 1 355 350 342 331
125 179 199 185 174 153 160 137 150 117 135 122 166 141 161 158 159 162 162 162 159 156 153 151 149 147 145 140 136 134 133 133 122 114 112 108 90 79 63 50 33 18 3 350 341 329 323 316 310
191 219 212 193 196 181 164 149 148 140 146 135 153 153 162 163 164 166 167 166 163 162 160 155 153 149 144 143 138 139 139 141 132 125 106 78 49 48 31 20 10 0 354 341 328 318 314 314 307
171 252 352 212 196 174 156 137 145 151 185 191 180 163 169 169 172 175 174 171 167 163 161 154 155 158 154 149 150 152 158 161 156 141 90 36 8 358 1 359 352 349 344 339 332 322 313 308 302
243 281 277 124 161 154 157 137 160 176 204 192 174 172 170 174 176 177 176 175 173 171 164 164 161 162 164 164 173 181 188 197 207 221 274 313 324 333 338 340 338 338 335 333 332 328 324 318 309
227 84 58 91 125 100 128 139 141 184 167 188 170 177 176 178 180 180 181 179 180 178 176 175 175 177 182 190 198 209 216 224 234 243 263 286 303 321 329 332 333 336 341 347 349 346 343 338 331
84 111 120 81 103 85 143 121 172 192 188 169 177 182 184 186 184 185 187 184 185 182 184 188 193 198 209 217 217 221 218 228 244 249 259 281 312 323 324 329 342 353 357 359 358 355 353 350 347
122 123 124 62 99 98 123 209 219 158 181 178 186 186 191 193 193 192 192 193 194 193 193 197 203 212 221 223 228 233 225 224 226 231 245 305 323 325 341 2 7 14 18 17 15 12 7 0 359
147 150 163 122 153 97 201 232 203 173 174 181 191 197 199 203 203 207 208 207 205 208 208 207 210 218 224 226 235 240 231 217 212 217 294 310 324 13 25 32 31 33 27 22 20 18 18 17 14
44 170 182 144 179 147 209 242 137 190 187 188 195 198 203 209 215 218 220 225 223 222 216 217 219 219 222 226 227 232 227 221 223 264 251 156 96 81 66 56 47 40 31 24 21 16 14 17 19
168 153 187 215 184 207 219 237 167 194 207 204 201 202 206 211 218 225 227 231 236 235 225 223 219 217 217 224 243 228 220 218 230 200 159 133 114 92 74 61 52 44 35 32 27 23 19 20 25
127 144 191 207 180 197 224 244 222 216 219 218 209 208 211 214 218 223 224 229 233 229 224 219 216 212 218 230 231 224 212 195 179 164 148 132 117 101 88 79 63 50 38 34 28 23 18 12 14
121 134 192 293 116 212 235 251 252 232 230 221 218 214 213 211 216 217 218 221 223 223 215 211 213 218 232 238 238 225 201 179 166 155 143 133 119 107 93 75 56 44 34 25 21 18 18 16 11
213 203 182 239 104 182 97 264 248 227 219 222 223 223 218 214 213 214 213 213 213 214 210 212 219 226 238 245 224 203 187 174 165 157 150 137 126 109 83 64 49 38 28 21 16 14 13 17 13
204 216 191 174 175 208 193 259 235 233 225 221 224 220 220 216 216 218 213 213 214 210 209 216 223 231 244 235 233 219 214 186 174 163 155 146 131 103 80 59 42 31 22 15 11 6 3 6 7
222 180 185 186 182 178 187 245 224 215 220 228 226 225 224 221 215 214 213 213 206 207 207 210 221 234 239 237 225 216 199 193 180 169 164 153 133 103 73 51 31 18 14 10 4 359 354 352 354
145 118 105 108 167 228 216 237 236 204 221 234 236 236 234 228 223 215 213 202 202 207 205 175 3 329 253 233 227 208 210 200 187 177 173 161 142 115 81 45 15 5 2 359 357 353 347 343 339
186 177 191 220 219 250 146 214 254 246 239 255 258 245 247 240 229 215 202 194 204 198 161 154 296 276 247 230 219 207 209 210 197 189 177 168 153 124 82 20 354 350 348 349 353 348 340 336 329
191 213 199 225 232 252 156 218 236 276 248 259 275 277 264 247 236 216 203 201 205 190 183 217 259 235 227 216 214 208 205 204 197 194 185 183 174 164 223 328 334 337 335 338 350 343 335 323 319
152 199 77 122 78 242 207 240 271 228 244 257 268 283 279 265 225 209 205 211 210 204 203 224 255 217 214 212 212 207 204 201 199 195 193 196 192 208 250 304 322 327 331 339 343 336 327 318 319
193 138 153 196 230 249 211 238 240 204 222 219 251 257 281 253 200 205 209 212 211 203 206 221 225 216 211 208 207 206 206 199 198 199 200 203 210 233 260 296 320 327 331 333 335 331 317 312 315
153 188 71 123 251 255 262 252 209 213 213 232 244 251 260 241 213 211 220 217 209 207 213 211 215 205 205 205 204 204 200 196 197 200 205 212 223 238 262 289 310 327 333 336 335 331 319 317 321
202 218 189 242 226 235 282 252 191 220 212 209 239 245 248 244 222 215 221 217 207 211 216 213 210 208 204 205 200 198 199 198 196 202 209 215 225 249 279 294 316 325 329 328 332 332 326 323 323